< < Back
Terminal Aerodrome Forecast


Current Version              Previous Versions:   1  2  3  4  5  6  7  8  9  

Terminal Aerodrome Forecast

523
FTUS44 KHUN 292322
TAFHSV
TAF
KHSV 292322Z 3000/3024 30010G15KT P6SM SCT050 BKN250
     FM300500 35009KT P6SM OVC035
      TEMPO 3009/3013 OVC020
     FM301700 36012G17KT P6SM SCT050 SCT250=

Latest METAR

049
SAUS80 KWBC 300000 RRB
MTRHSV
METAR KHSV 292353Z 25005KT 10SM SCT055 BKN250 14/07 A3011 RMK AO2 SLP196
T01390072 10183 20139 51016


USA.gov is the U.S. government's official web portal to all federal, state and local government web resources and services.